www.pogodaiklimat.ru

Погода и климат >> Архив погоды >> Индонезия >> Пеканбару


ПОГОДА в Пеканбару

  • Прогноз погоды в Пеканбару
  • Монитор погоды в Пеканбару

АРХИВ ПОГОДЫ в Пеканбару

Время (UTC), дата Ветер
(напр.,м/с)
 
Видим.   Явления Облачность Т
(С)
Тd
(С)
f
(%)
Тe
(С)
Тes
(С)
Комфортность P
(гПа)
Po
(гПа)
Тmin
(С)
Tmax
(С)
R
(мм)
R24
(мм)
S
(см)
06 12.06 Ю 4 8000 м слаб. дождь 10/5 360 м
[Sc As op Cs]
+25.4 +22.0 81 +33 +36 очень
душно
1009.2 1005.5 0.1
09 12.06 штиль 0 8000 м {дождь} 10/6 400 м
[Sc Ac As Cs]
+26.6 +23.3 82 +36 +37 очень
душно
1007.4 1003.7 0.1
12 12.06 штиль 0 7000 м слаб. дождь 10/6 400 м
[Sc Ac As Cs]
+25.1 +24.3 95 +35 +35 очень
душно
1008.7 1005.0 +29.3 0.5
15 12.06 штиль 0 7000 м {дождь} 10/5 400 м
[Sc Ac As Cs]
+24.9 +24.1 95 +34 +34 очень
душно
1010.4 1006.7 0.0
18 12.06 штиль 0 5000 м мгла {дождь} 10/5 400 м
[Sc Ac As Cs]
+24.5 +24.2 98 +34 +34 очень
душно
1009.4 1005.6 0.0
21 12.06 штиль 0 3000 м слаб. дождь 10/5 360 м
[Sc As op Cs]
+24.4 +24.3 99 +34 +34 очень
душно
1007.9 1004.2 1
00 13.06 штиль 0 4000 м мгла {дождь} 9/4 360 м
[Sc Ac As Cs]
+24.4 +24.3 99 +34 +34 очень
душно
1009.5 1005.8 +21.4 3
03 13.06 ЮВ 4 8000 м 10/6 450 м
[Cu med, cong Ac As Ci sp]
+27.5 +25.0 86 +39 +41 очень
душно
1011.1 1007.3
06 13.06 Ю 7 10 км 9/5 450 м
[Cu med, cong Ac trans Ci sp]
+30.6 +24.1 68 +42 +44 опасность
перегрева
1009.0 1005.3
09 13.06 Ю 3 10 км 9/3 450 м
[Cu med, cong Ac trans Ci sp]
+30.6 +25.2 73 +44 +46 опасность
перегрева
1007.3 1003.6
12 13.06 Ю 3 8000 м 10/4 450 м
[Sc Ac trans Ci sp]
+28.8 +25.6 83 +43 +43 опасность
перегрева
1008.7 1005.0 +31.6
15 13.06 штиль 0 8000 м 10/5 400 м
[Sc Ac As Cs]
+27.6 +24.9 85 +39 +39 очень
душно
1011.0 1007.3
18 13.06 Ю 3 7000 м 9/4 400 м
[Sc Ac As Cs]
+26.4 +25.2 93 +38 +38 очень
душно
1009.9 1006.1
21 13.06 штиль 0 7000 м 9/3 400 м
[Sc Ac As Cs]
+25.8 +25.3 97 +37 +37 очень
душно
1008.5 1004.6
00 14.06 штиль 0 8000 м 9/1 400 м
[Sc Ac As Ci fib]
+26.2 +25.1 94 +38 +38 очень
душно
1009.5 1005.8 +24.1
03 14.06 штиль 0 10 км 8/4 360 м
[Cu med, cong Ac trans Ci sp]
+30.2 +24.8 73 +43 +50 опасность
перегрева
1009.7 1005.9
06 14.06 Ю 4 10 км 9/5 400 м
[Cu med, cong Ac trans Ci sp]
+33.2 +24.6 61 +46 +50 опасность
перегрева
1007.5 1003.8
09 14.06 штиль 0 10 км 9/3 420 м
[Cu med, cong Ac trans Ci sp]
+32.4 +24.6 64 +45 +49 опасность
перегрева
1004.8 1001.1
12 14.06 В 4 8000 м 9/3 450 м
[Cb cap Ac trans Ci sp]
+31.6 +25.4 70 +46 +46 опасность
перегрева
1006.5 1002.8 +34.4
15 14.06 штиль 0 8000 м в посл. час дождь 9/4 450 м
[Cb cap Ac trans Ci sp]
+26.0 +23.9 88 +36 +36 очень
душно
1009.9 1006.2 0.0
18 14.06 СЗ 3 8000 м в посл. час дождь 10/4 300 м
[Sc Ac trans Ci sp]
+23.8 +23.6 99 +32 +32 очень
душно
1010.7 1007.0 27
21 14.06 СЗ 3 1500 м дождь 10/6 210 м
[Sc Ac trans Cs]
+23.8 +23.5 98 +32 +32 очень
душно
1009.7 1006.0 6
00 15.06 С 3 8000 м {дождь} 10/5 500 м
[Sc Ac trans Cs]
+23.8 +23.0 95 +32 +32 очень
душно
1010.4 1006.7 +23.4 5
03 15.06 Ю 3 8000 м 8/4 450 м
[Sc Ac trans Ci sp]
+26.4 +24.1 87 +37 +41 очень
душно
1012.3 1008.6
06 15.06 Ю 3 10 км 9/5 400 м
[Cu med, cong Ac trans Ci sp]
+29.4 +24.8 76 +42 +46 опасность
перегрева
1010.0 1006.3
09 15.06 Ю 3 10 км 8/3 420 м
[Cu med, cong Ac trans Ci sp]
+31.2 +24.4 67 +43 +46 опасность
перегрева
1007.1 1003.4
12 15.06 Ю 3 8000 м 8/3 450 м
[Sc Ac trans Ci sp]
+27.8 +25.5 87 +41 +41 опасность
перегрева
1008.4 1004.7 +32.5
15 15.06 штиль 0 8000 м 8/1 400 м
[Sc Ac trans Ci fib]
+25.9 +25.0 95 +37 +37 очень
душно
1010.1 1006.4
18 15.06 штиль 0 8000 м 8/1 400 м
[Sc Ac trans Ci fib]
+25.9 +25.0 95 +37 +37 очень
душно
1010.1 1006.4
21 15.06 штиль 0 7000 м 9/3 400 м
[Sc Ac As Ci fib]
+24.9 +24.6 98 +35 +35 очень
душно
1008.5 1004.8
00 16.06 штиль 0 8000 м 8/0
[Ac trans Ci fib]
+25.3 +24.3 94 +35 +36 очень
душно
1009.5 1005.7 +23.4
03 16.06 Ю 4 10 км 6/3 360 м
[Sc Ac trans Ci fib]
+29.1 +25.1 79 +42 +47 опасность
перегрева
1011.0 1007.3
06 16.06 Ю 5 10 км 8/5 400 м
[Cu med, cong Ac trans Ci sp]
+32.6 +24.8 64 +46 +50 опасность
перегрева
1009.0 1005.3
09 16.06 ЮВ 5 10 км 8/3 420 м
[Cu med, cong Ac trans Ci sp]
+33.3 +24.2 59 +45 +47 опасность
перегрева
1006.7 1003.0
12 16.06 ЮЗ 3 8000 м 9/3 500 м
[Sc Ac trans Ci sp]
+30.1 +25.5 76 +44 +44 опасность
перегрева
1008.3 1004.6 +33.6
15 16.06 штиль 0 8000 м 6/1 500 м
[Sc Ac trans Ci sp]
+26.6 +24.1 86 +37 +37 очень
душно
1010.0 1006.3
18 16.06 штиль 0 8000 м 8/3 500 м
[Sc Ac trans Ci sp]
+26.6 +25.0 91 +38 +38 очень
душно
1009.7 1006.0
21 16.06 штиль 0 8000 м 8/3 450 м
[Sc Ac trans Ci sp]
+25.8 +25.0 95 +37 +37 очень
душно
1008.5 1004.8
00 17.06 штиль 0 8000 м 5/0
[Ac trans Ci sp]
+26.0 +24.9 94 +37 +38 очень
душно
1009.2 1005.5 +25.1
03 17.06 Ю 6 10 км 8/4 400 м
[Cu med, cong Ac trans Ci sp]
+29.9 +25.2 76 +43 +46 опасность
перегрева
1010.7 1007.0
06 17.06 Ю 4 10 км 9/6 400 м
[Cu med, cong Ac trans Ci sp]
+30.7 +24.9 71 +44 +47 опасность
перегрева
1008.9 1005.2
09 17.06 Ю 3 9000 м {дождь} 10/4 500 м
[Cu med, cong Ac trans Ci sp]
+30.2 +24.5 72 +43 +44 опасность
перегрева
1007.0 1003.3 0.1
12 17.06 штиль 0 8000 м {дождь} 10/3 500 м
[Sc Ac trans Cs]
+29.0 +25.2 80 +42 +42 опасность
перегрева
1008.4 1004.7 +31.7 0.1
15 17.06 штиль 0 8000 м 9/4 400 м
[Sc Ac trans Cs]
+28.2 +26.1 88 +42 +42 опасность
перегрева
1010.4 1006.7
18 17.06 штиль 0 8000 м 9/4 400 м
[Sc Ac As Cs]
+26.9 +25.7 93 +40 +40 очень
душно
1010.1 1006.3
21 17.06 С 6 5000 м гроза, ливневой дождь 10/8 400 м
[Cb cap Ac As Ci sp]
+24.7 +24.3 98 +34 +34 очень
душно
1009.4 1005.7 7
00 18.06 Ю 5 7000 м слаб. дождь {гроза} 10/6 150 м
[Cb cap Ac As Cs]
+23.3 +23.2 99 +33 +33 очень
душно
1010.6 1006.9 +24.3 21
03 18.06 штиль 0 7000 м в посл. час дождь 10/5 500 м
[Sc Ac trans Ci sp]
+24.0 +23.5 97 +32 +37 очень
душно
1011.3 1007.6 3
06 18.06 Ю 4 8000 м {дождь} 10/5 450 м
[Sc Ac trans Ci sp]
+27.5 +24.4 83 +39 +42 очень
душно
1009.0 1005.2 0.0
09 18.06 ЮВ 3 8000 м 9/5 400 м
[Sc Ac trans Ci sp]
+27.9 +24.8 83 +40 +41 очень
душно
1007.8 1004.1
12 18.06 штиль 0 8000 м 9/3 450 м
[Sc Ac trans Ci sp]
+25.8 +23.0 85 +34 +34 очень
душно
1008.2 1004.5 +30.0
15 18.06 штиль 0 8000 м 9/4 360 м
[Sc Ac trans Ci sp]
+25.3 +23.1 88 +34 +34 очень
душно
1010.1 1006.4
18 18.06 штиль 0 8000 м 9/4 500 м
[Sc Ac trans Ci sp]
+24.8 +23.7 94 +34 +34 очень
душно
1008.9 1005.2
21 18.06 штиль 0 8000 м 9/4 480 м
[Sc Ac trans Ci sp]
+24.4 +23.8 96 +33 +33 очень
душно
1007.7 1004.0
00 19.06 штиль 0 4000 м мгла 9/3 360 м
[Sc Ac trans Ci sp]
+24.2 +23.9 98 +33 +33 очень
душно
1009.4 1005.7 +23.2 3
03 19.06 Ю 3 8000 м 10/5 400 м
[Sc Ac As Cs]
+27.8 +25.4 87 +41 +43 опасность
перегрева
1010.4 1006.7

 

Местоположение метеостанции Пеканбару (Индонезия): широта 0.47 долгота 101.45 высота над уровнем моря 31 м.

В архиве по умолчанию представлена погода в Пеканбару за последнюю неделю. Архивные данные за месяц целиком и за предыдущие месяцы, начиная с января 2011 года, Вы можете получить, выбрав интересующий диапазон дат из раскрывающегося списка и нажав кнопку "Ввод!".


*Определитесь, кто Вы:
робот инопланетянин человек

Внимание! Время в таблицах - всемирное. Для получения местного времени необходимо прибавить поправку, которая равна 7 ч.

Смотрите также архив погоды в соседних городах и на ближайших метеорологических станциях:

Погода в Аэропорту Япура (Индонезия) (131 км)
Погода в Паданге (Индонезия) (194 км)
Погода в Малакке (Малайзия) (219 км)
Погода в Куала-Лумпур аэропорту (Малайзия) (252 км)
Погода в Аэропорту Сеная (Малайзия) (279 км)
Погода в Куала-Лумпуре (Малайзия) (295 км)
Погода в Сингапуре (Сингапур) (299 км)
Погода в Аэропорту Ханга Надима (Индонезия) (305 км)
Погода в Сиболге (Индонезия) (310 км)
Погода в Джамби (Индонезия) (338 км)

Пояснения к столбцам:

Ветер - указаны скорость ветра в м/с - средняя за 10 мин, порывы в срок и между сроками (в фигурных скобках) и направление, откуда дует ветер: С - северный, СВ - северо-восточный, В - восточный, ЮВ - юго-восточный, Ю - южный, ЮЗ - юго-западный, З - западный, СЗ - северо-западный.
Видимость - горизонтальная дальность видимости в метрах или километрах. При видимости от 1 до 10 км при отсутствии осадков обычно наблюдается дымка, при ухудшении видимости до 1 км и менее - туман. В сухую погоду видимость может ухудшаться дымом, пылью или мглою.
Явления - указаны атмосферные явления, наблюдавшиеся в срок или в последний час перед сроком; фигурными скобками обозначены явления, наблюдавшиеся между сроками (за 1-3 часа до срока); квадратными скобками обозначены град или гололедные отложения с указанием их диаметра в мм.
Облачность - указаны через наклонную черту общая и нижняя облачность в баллах и высота нижней границы облаков в метрах; квадратными скобками обозначены формы облаков: Ci - перистые, Cs - перисто-слоистые, Cc - перисто-кучевые, Ac - высококучевые, As - высокослоистые, Sc - слоисто-кучевые, Ns - слоисто-дождевые, Cu - кучевые, Cb - кучево-дождевые. Подробнее классификацию облаков см. в Атласе облаков (PDF).
T - Температура воздуха - температура, измеренная на высоте 2 м над землей.
Td - Температура точки росы - температура, при понижении до которой содержащийся в воздухе водяной пар достигнет насыщения.
f - Относительная влажность воздуха - влажноcть воздуха, измеренная на высоте 2 м над землей.
Te - Эффективная температура - температура, которую ощущает одетый по сезону человек в тени. Характеристика душности погоды. При расчете учитывается влияние влажности воздуха и скорости ветра на теплоощущения человека.
Tes - Эффективная температура на солнце - температура, которую ощущает человек, с поправкой на солнечный нагрев. Характеристика знойности погоды. Зависит от высоты солнца над горизонтом, облачности и скорости ветра. Ночью, в пасмурную погоду, а также при ветре 12 м/с и более поправка равна нулю.
P - Атмосферное давление - приведенное к уровню моря атмосферное давление.
Po - Атмосферное давление - измеренное на уровне метеостанции атмосферное давление.
Tmin - Минимальная температура - минимум температуры воздуха на высоте 2 м над землей.
Tmax - Максимальная температура - максимум температуры воздуха на высоте 2 м над землей.
R - Количество осадков - Количество выпавших осадков за период времени, мм. При наведении курсора мыши на число - период времени, за который выпало указанное количество осадков.
R24 - Количество осадков - Количество выпавших осадков за 24 часа, мм.
S - Снежный покров - Высота снежного покрова, см. При наведении курсора мыши на число - состояние снежного покрова и степень покрытия местности в баллах.